Oakland, MD

9:59 PM EST on January 21, 2018 (GMT -0500)
Oakland

Weather History for K2G4 - October, 2012

Change the Weather History Date:

Sunday, October 28, 2012

  Actual Average (KMGW) Record (KMGW)
Temperature  
Mean Temperature 40 °F -  
Max Temperature 42 °F 60 °F 79 °F (2014)
Min Temperature 37 °F 40 °F 23 °F (1898)
Degree Days  
Heating Degree Days 26    
Moisture  
Dew Point 42 °F    
Average Humidity 100    
Maximum Humidity 100    
Minimum Humidity 100    
Precipitation  
Precipitation 0.00 in - - ()
Sea Level Pressure  
Sea Level Pressure 29.83 in    
Wind  
Wind Speed 5 mph (NNW)    
Max Wind Speed 8 mph    
Max Gust Speed -    
Averages and records for this station are not official NWS values.
T = Trace of Precipitation, MM = Missing Value Source: NWS Daily Summary

Daily Weather History Graph

Daily Weather History Graph

Search for Another Location

Airport or City:

Trip Planner

Search our weather history database for the weather conditions in past years. The results will help you decide how hot, cold, wet, or windy it might be!

Date:

Astronomy

Oct. 28, 2012 Rise Set
Actual Time 7:41 AM EDT 6:19 PM EDT
Civil Twilight 7:14 AM EDT 6:47 PM EDT
Nautical Twilight 6:42 AM EDT 7:19 PM EDT
Astronomical Twilight 6:11 AM EDT 7:50 PM EDT
Moon 5:36 PM EDT (10/28) 6:33 AM EDT (10/28)
Length of Visible Light 11h 33m
Length of Day
10h 38m
Waxing Gibbous, 99% of the Moon is Illuminated
Oct 28
Waxing Gibbous
Oct 29
Full
Nov 6
Last Quarter
Nov 13
New
Nov 20
First Quarter

Hourly Weather History & Observations

Time (EDT) Temp. Windchill Dew Point Humidity Pressure Visibility Wind Dir Wind Speed Gust Speed Precip Events Conditions
12:05 AM 42.8 °F 39.3 °F 42.8 °F 100% 29.94 in 0.2 mi NW 5.8 mph - N/A Fog Fog
12:25 AM 42.8 °F 38.6 °F 42.8 °F 100% 29.94 in 0.2 mi NNW 6.9 mph - N/A Fog Fog
12:45 AM 42.8 °F 39.3 °F 42.8 °F 100% 29.93 in 0.2 mi NNW 5.8 mph - N/A Fog Fog
1:10 AM 42.8 °F 40.1 °F 42.8 °F 100% 29.93 in 0.2 mi North 4.6 mph - N/A Fog Fog
1:30 AM 42.8 °F 40.1 °F 42.8 °F 100% 29.93 in 0.2 mi North 4.6 mph - N/A Fog Fog
1:50 AM 42.8 °F 40.1 °F 42.8 °F 100% 29.92 in 0.2 mi North 4.6 mph - N/A Fog Fog
2:15 AM 42.8 °F 40.1 °F 42.8 °F 100% 29.91 in 0.2 mi NNW 4.6 mph - N/A Fog Fog
2:35 AM 42.8 °F 40.1 °F 42.8 °F 100% 29.91 in 0.2 mi North 4.6 mph - N/A Fog Fog
3:15 AM 42.8 °F 39.3 °F 42.8 °F 100% 29.91 in 0.2 mi North 5.8 mph - N/A Fog Fog
3:40 AM 42.8 °F 40.1 °F 42.8 °F 100% 29.90 in 0.2 mi North 4.6 mph - N/A Fog Fog
4:00 AM 42.8 °F 40.1 °F 42.8 °F 100% 29.89 in 0.2 mi North 4.6 mph - N/A Fog Fog
4:20 AM 42.8 °F 39.3 °F 42.8 °F 100% 29.89 in 0.2 mi NNW 5.8 mph - N/A Fog Fog
4:40 AM 42.8 °F 40.1 °F 42.8 °F 100% 29.88 in 0.2 mi North 4.6 mph - N/A Fog Fog
5:05 AM 42.8 °F 39.3 °F 42.8 °F 100% 29.89 in 0.2 mi North 5.8 mph - N/A Fog Fog
5:25 AM 42.8 °F 40.1 °F 42.8 °F 100% 29.88 in 0.2 mi NNW 4.6 mph - N/A Fog Fog
5:45 AM 41.0 °F 38.0 °F 41.0 °F 100% 29.88 in 0.2 mi North 4.6 mph - N/A Fog Fog
6:05 AM 41.0 °F 37.1 °F 41.0 °F 100% 29.88 in 0.2 mi NNW 5.8 mph - N/A Fog Fog
6:30 AM 41.0 °F 38.0 °F 41.0 °F 100% 29.88 in 0.2 mi NNW 4.6 mph - N/A Fog Fog
6:50 AM 41.0 °F 37.1 °F 41.0 °F 100% 29.88 in 0.2 mi NNW 5.8 mph - N/A Fog Fog
7:10 AM 41.0 °F 37.1 °F 41.0 °F 100% 29.87 in 0.5 mi North 5.8 mph - N/A Fog Fog
7:30 AM 41.0 °F 39.0 °F 41.0 °F 100% 29.87 in 0.5 mi North 3.5 mph - N/A Fog Fog
7:55 AM 41.0 °F 37.1 °F 41.0 °F 100% 29.86 in 0.2 mi North 5.8 mph - N/A Fog Fog
8:15 AM 41.0 °F 38.0 °F 41.0 °F 100% 29.87 in 0.2 mi North 4.6 mph - N/A Fog Fog
8:35 AM 42.8 °F 41.1 °F 42.8 °F 100% 29.87 in 0.2 mi North 3.5 mph - N/A Fog Fog
8:55 AM 42.8 °F 40.1 °F 42.8 °F 100% 29.87 in 0.2 mi NNW 4.6 mph - N/A Fog Fog
9:20 AM 42.8 °F 40.1 °F 42.8 °F 100% 29.86 in 0.2 mi North 4.6 mph - N/A Fog Fog
9:40 AM 42.8 °F 40.1 °F 42.8 °F 100% 29.86 in 0.2 mi North 4.6 mph - N/A Fog Fog
12:10 PM 42.8 °F 41.1 °F 42.8 °F 100% 29.84 in 0.2 mi NW 3.5 mph - N/A Fog Fog
12:30 PM 42.8 °F 40.1 °F 42.8 °F 100% 29.83 in 0.2 mi NNW 4.6 mph - N/A Fog Fog
12:50 PM 42.8 °F 39.3 °F 42.8 °F 100% 29.82 in 0.2 mi NNW 5.8 mph - N/A Fog Fog
1:10 PM 42.8 °F 39.3 °F 42.8 °F 100% 29.81 in 0.2 mi NW 5.8 mph - N/A Fog Fog
1:35 PM 42.8 °F 41.1 °F 42.8 °F 100% 29.80 in 0.2 mi NW 3.5 mph - N/A Fog Fog
1:55 PM 42.8 °F 40.1 °F 42.8 °F 100% 29.79 in 0.2 mi NNW 4.6 mph - N/A Fog Fog
2:15 PM 42.8 °F 40.1 °F 42.8 °F 100% 29.78 in 0.2 mi NNW 4.6 mph - N/A Fog Fog
2:35 PM 42.8 °F 39.3 °F 42.8 °F 100% 29.78 in 0.2 mi NNW 5.8 mph - N/A Fog Fog
3:00 PM 42.8 °F 39.3 °F 42.8 °F 100% 29.77 in 0.2 mi NNW 5.8 mph - N/A Fog Fog
4:00 PM 42.8 °F 38.6 °F 42.8 °F 100% 29.76 in 0.2 mi North 6.9 mph - N/A Fog Fog
4:25 PM 42.8 °F 38.6 °F 42.8 °F 100% 29.76 in 0.2 mi NNW 6.9 mph - N/A Fog Fog
4:45 PM 42.8 °F 38.6 °F 42.8 °F 100% 29.77 in 0.2 mi NNW 6.9 mph - N/A Fog Fog
5:05 PM 42.8 °F 41.1 °F 42.8 °F 100% 29.76 in 0.2 mi NNW 3.5 mph - N/A Fog Fog
5:25 PM 42.8 °F 40.1 °F 42.8 °F 100% 29.76 in 0.2 mi NNW 4.6 mph - N/A Fog Fog
5:50 PM 41.0 °F 39.0 °F 41.0 °F 100% 29.77 in 0.2 mi NNW 3.5 mph - N/A Fog Fog
6:10 PM 41.0 °F - 41.0 °F 100% 29.77 in 0.2 mi Calm Calm - N/A Fog Fog
6:30 PM 41.0 °F 39.0 °F 41.0 °F 100% 29.78 in 0.2 mi NNW 3.5 mph - N/A Fog Fog
6:50 PM 41.0 °F 39.0 °F 41.0 °F 100% 29.78 in 0.2 mi NNW 3.5 mph - N/A Fog Fog
7:35 PM 41.0 °F 37.1 °F 41.0 °F 100% 29.77 in 0.2 mi NNW 5.8 mph - N/A Fog Fog
7:55 PM 41.0 °F 38.0 °F 41.0 °F 100% 29.77 in 0.2 mi North 4.6 mph - N/A Fog Fog
8:15 PM 41.0 °F 38.0 °F 41.0 °F 100% 29.77 in 0.2 mi North 4.6 mph - N/A Fog Fog
9:00 PM 41.0 °F 36.4 °F 41.0 °F 100% 29.76 in 0.2 mi NNW 6.9 mph - N/A Fog Fog
9:20 PM 41.0 °F 37.1 °F 41.0 °F 100% 29.76 in 0.2 mi NNW 5.8 mph - N/A Fog Fog
10:05 PM 39.2 °F 35.0 °F 39.2 °F 100% 29.76 in 0.2 mi NW 5.8 mph - N/A Fog Fog
10:45 PM 39.2 °F 35.0 °F 39.2 °F 100% 29.75 in 0.2 mi NNW 5.8 mph - N/A Fog Fog
11:10 PM 37.4 °F 32.1 °F 37.4 °F 100% 29.75 in 0.2 mi NNW 6.9 mph - N/A Fog Fog
11:30 PM 37.4 °F 31.4 °F 37.4 °F 100% 29.74 in 0.2 mi NW 8.1 mph - N/A Fog Fog
11:50 PM 37.4 °F 32.1 °F 37.4 °F 100% 29.74 in 0.2 mi NNW 6.9 mph - N/A Fog Fog